#timestamp,LO_Frequency,Hit,StdDev 
1661241615.3,286047006.0,N
1661241635.2,286047003.0,N
1661241655.9,286047002.9,N
1661241675.7,286047004.1,N
1661241695.6,286047001.5,N
1661241715.4,286047001.9,N
1661241735.2,286047003.1,N
1661241755.1,286047003.5,N
1661241756.0,286047003.5,N
1661241775.8,286047003.9,N
1661241795.7,286047004.3,N
1661241815.5,286047003.2,N
1661241835.3,286047005.5,N
1661241855.2,286047001.9,N
1661241875.0,286047001.5,N
1661241875.9,286047001.5,N
1661241895.8,286047002.6,N
1661241915.6,286047002.6,N
1661241935.4,286047003.6,N
1661241955.3,286047005.8,Y
1661241975.1,286047002.7,P
1661241995.8,286046999.7,N
1661242015.7,286046998.6,N
1661242035.5,286047000.0,N
1661242055.4,286046999.8,N
1661242075.2,286046998.7,N
1661242095.0,286047000.3,N
1661242095.9,286047000.3,N
1661242115.8,286046999.6,N
1661242135.6,286046997.4,N
1661242155.4,286046999.4,N
1661242175.3,286046999.5,N
1661242195.1,286046998.9,N
1661242215.9,286047001.0,N
1661242235.7,286046998.1,N
1661242255.5,286046998.7,N
1661242275.4,286047000.7,N
1661242295.2,286047000.3,N
1661242315.0,286046999.9,N
1661242315.9,286046999.9,N
1661242335.8,286046998.5,N
1661242355.6,286046999.5,N
1661242375.5,286046995.4,Y
1661242395.3,286046995.1,P
1661242415.1,286046994.9,N
1661242435.9,286046997.8,N
1661242455.7,286046997.5,N
1661242475.6,286046995.6,N
1661242495.4,286046995.0,N
1661242515.2,286046996.2,N
1661242535.1,286046999.5,N
1661242536.0,286046999.5,N
1661242555.8,286046999.4,N
1661242575.6,286046999.6,N
1661242595.5,286046997.4,N
1661242615.3,286046998.7,N
1661242635.2,286047000.4,N
1661242655.9,286047002.5,N
1661242675.7,286047000.9,N
1661242695.6,286046998.6,N
1661242715.4,286046998.9,N
1661242735.2,286046998.9,N
1661242755.1,286046998.4,N
1661242756.0,286046998.4,N
1661242775.8,286046998.5,N
1661242795.7,286046999.3,N
1661242815.5,286046997.2,N
1661242835.3,286046996.1,N
1661242855.2,286046996.6,N
1661242875.0,286046997.1,N
1661242875.9,286046997.1,N
1661242895.7,286046999.6,N
1661242915.6,286046997.0,N
1661242935.4,286046999.9,N
1661242955.3,286046999.0,N
1661242975.1,286046997.2,N
1661242976.0,286046997.2,N
1661242995.8,286046995.1,Y
1661243015.7,286046996.7,P
1661243035.5,286046998.5,N
1661243055.4,286047000.3,N
1661243075.2,286047000.9,N
1661243095.0,286047000.3,N
1661243095.9,286047000.3,N
1661243115.8,286046998.3,N
1661243135.6,286046998.9,N
1661243155.4,286046998.9,N
1661243175.3,286046999.0,N
1661243195.1,286047001.0,N
1661243215.9,286046998.3,N
1661243235.7,286047011.9,Y
1661243255.5,286047000.8,P
1661243275.4,286047001.4,N
1661243295.2,286047001.8,N
1661243315.0,286046999.7,N
1661243316.0,286046999.7,N
1661243335.8,286046999.9,N
1661243355.6,286047000.2,N
1661243375.5,286046999.8,N
1661243395.3,286047001.7,N
1661243415.1,286047002.6,N
1661243435.9,286047002.3,N
1661243455.7,286047001.0,N
1661243475.5,286047000.5,N
1661243495.4,286046998.7,N
1661243515.2,286046999.8,N
1661243535.1,286047002.0,N
1661243536.0,286047002.0,N
1661243555.8,286047002.5,N
1661243575.6,286047001.5,N
1661243595.5,286047002.6,N
1661243615.3,286047003.4,N
1661243635.2,286047004.7,Y
1661243655.9,286047005.3,P
1661243675.7,286047003.1,N
1661243695.6,286047004.3,N
1661243715.4,286047001.4,N
1661243735.2,286047002.0,N
1661243755.1,286047002.8,N
1661243756.0,286047002.8,N
1661243775.8,286047002.8,N
1661243795.7,286047000.2,N
1661243815.5,286047001.2,N
1661243835.3,286046999.3,N
1661243855.2,286046999.0,N
1661243875.0,286046998.4,N
1661243875.9,286046998.4,N
1661243895.7,286047000.6,N
1661243915.6,286047000.2,N
1661243935.4,286046999.9,N
1661243955.3,286047001.9,N
1661243975.1,286047000.1,N
1661243976.0,286047000.1,N
1661243995.8,286047002.3,N
1661244015.7,286047000.3,N
1661244035.5,286047002.6,N
1661244055.4,286047002.8,N
1661244075.2,286047001.2,N
1661244095.0,286047002.6,N
1661244095.9,286047002.6,N
1661244115.8,286047002.4,N
1661244135.6,286047001.1,N
1661244155.4,286047002.3,N
1661244175.3,286047000.5,N
1661244195.1,286047000.0,N
1661244215.9,286046998.5,N
1661244235.7,286047002.4,N
1661244255.5,286047003.6,N
1661244275.4,286047005.9,Y
1661244295.2,286047002.7,P
1661244315.1,286047000.7,N
1661244316.0,286047000.7,N
1661244335.8,286047000.5,N
1661244355.6,286046998.2,N
1661244375.5,286047001.1,N
1661244395.3,286047002.7,N
1661244415.2,286046998.6,N
1661244435.9,286046998.6,N
1661244455.7,286046999.5,N
1661244475.6,286046998.8,N
1661244495.4,286047000.5,N
1661244515.2,286047000.2,N
1661244535.1,286047000.2,N
1661244536.0,286047000.2,N
1661244555.8,286047001.1,N
1661244575.7,286047001.0,N
1661244595.5,286047002.2,N
1661244615.3,286047004.0,Y
1661244635.2,286047001.5,P
1661244655.0,286046999.9,N
1661244655.9,286046999.9,N
1661244675.7,286046998.4,N
1661244695.6,286046999.1,N
1661244715.4,286046996.9,Y
1661244735.3,286046999.5,P
1661244755.1,286046999.6,N
1661244775.8,286046996.7,P
1661244795.7,286046997.7,N
1661244815.5,286046997.6,N
1661244835.4,286046996.9,N
1661244855.2,286046998.1,N
1661244875.0,286047000.7,N
1661244875.9,286047000.7,N
1661244895.8,286046998.2,N
1661244915.6,286047001.1,N
1661244935.4,286046999.9,N
1661244955.3,286046998.3,N
1661244975.1,286046998.5,N
1661244995.9,286046998.6,N
1661245015.7,286046999.2,N
1661245035.5,286046999.0,N
1661245055.4,286047000.5,N
1661245075.2,286047004.2,Y
1661245095.0,286047003.2,P
1661245095.9,286047003.2,N
1661245115.8,286047001.7,N
1661245135.6,286047002.5,N
1661245155.5,286047000.1,N
1661245175.3,286046999.9,N
1661245195.1,286046998.1,N
